OPS 1948

导读 | 豆包AI

OPS 1948是美国于1979年10月1日08:00发射的军用卫星,OPS编号常被用于美国军方保密航天任务,该卫星大概率属于美军早期侦察或军用通信体系,依托美国成熟的运载火箭技术进入预定轨道,服役期间承担军事领域特定空间任务,是冷战时期美国航天军事部署的组成部分,反映了当时美国在航天军事应用领域的发展水平。

基本信息
目录编号:
11558
目录名称:
OPS 1948
国际标识:
1979-086A
轨道中心:
EARTH
卫星名称:
OPS 1948
卫星全名:
--
卫星状态:
在轨 (已飞行17014 天)
发射日期:
1979-10-01 UTC
国别 :
美国 (US)
星等 :
--
轨道信息
数据来源 国际轨道数据 AOE轨道数据
星历时间 2026-05-01T02:50:52+0800
12小时前
查看轨道信息
2026-05-01T05:00:00+0800
10小时前
查看轨道信息
半长轴 42198.149km 42198.206km
偏心率 0.1314975 0.1314831
轨道倾角 5.994° 5.994°
近地点辐角 77.022° 77.025°
升交点赤经 11.516° 11.516°
平近点角 106.658° 138.989°
近地点 30271.06km 30271.718km
远地点 41368.964km 41368.42km
周期 1437.804分钟 1437.807分钟
每日圈数 1.001527 1.001525
详细信息
使用方式:
暂无
2D轨道图
3D轨道图
轨道高度分析图
轨道倾角分析图
轨道综合分析图
查看轨道综合分析图